Weather History for Manchester, NH

Change the Weather History Date:

Thursday, February 21, 2013

  Actual Average Record
Temperature  
Mean Temperature 26 °F -  
Max Temperature 30 °F 39 °F 65 °F (1994)
Min Temperature 23 °F 17 °F -11 °F (1968)
Degree Days  
Heating Degree Days 38    
Moisture  
Dew Point 10 °F    
Average Humidity 52    
Maximum Humidity 65    
Minimum Humidity 43    
Precipitation  
Precipitation 0.00 in - - ()
Snow  
Snow 0.00 in - - ()
Snow Depth 2.00 in    
Sea Level Pressure  
Sea Level Pressure 29.94 in    
Wind  
Wind Speed 12 mph (NW)    
Max Wind Speed 22 mph    
Max Gust Speed 34 mph    
Visibility 10 miles    
Events      
Averages and records for this station are not official NWS values.
T = Trace of Precipitation, MM = Missing Value Source: NWS Daily Summary

Daily Weather History Graph

Daily Weather History Graph

Search for Another Location

Airport:

Trip Planner

Search our weather history database for the weather conditions in past years. The results will help you decide how hot, cold, wet, or windy it might be!

Date:

Astronomy

Feb. 21, 2013 Rise Set
Actual Time 6:33 AM EST 5:25 PM EST
Civil Twilight 6:05 AM EST 5:54 PM EST
Nautical Twilight 5:32 AM EST 6:27 PM EST
Astronomical Twilight 4:59 AM EST 6:59 PM EST
Moon 1:33 PM EST (2/21) 3:40 AM EST (2/21)
Length of Visible Light 11h 48m
Length of Day
10h 51m
Waxing Gibbous, 83% of the Moon is Illuminated
Feb 21
Waxing Gibbous
Feb 25
Full
Mar 4
Last Quarter
Mar 11
New
Mar 19
First Quarter

Hourly Weather History & Observations

Time (EST) Temp. Windchill Dew Point Humidity Pressure Visibility Wind Dir Wind Speed Gust Speed Precip Events Conditions
12:53 AM 26.1 °F 19.4 °F 12.0 °F 55% 29.79 in 10.0 mi WNW 5.8 mph - N/A   Clear
1:53 AM 26.1 °F 16.2 °F 12.0 °F 55% 29.79 in 10.0 mi West 10.4 mph 19.6 mph N/A   Clear
2:53 AM 26.1 °F 18.4 °F 12.0 °F 55% 29.78 in 10.0 mi Variable 6.9 mph - N/A   Clear
3:53 AM 25.0 °F 17.1 °F 12.0 °F 58% 29.79 in 10.0 mi West 6.9 mph - N/A   Clear
4:53 AM 24.8 °F 19.1 °F 10.4 °F 54% 29.75 in 10.0 mi West 4.6 mph - N/A   Clear
5:53 AM 24.1 °F 14.4 °F 10.9 °F 57% 29.83 in 10.0 mi West 9.2 mph - N/A   Mostly Cloudy
6:53 AM 23.0 °F 10.6 °F 7.0 °F 50% 29.84 in 10.0 mi WNW 13.8 mph - N/A   Partly Cloudy
7:53 AM 23.0 °F 11.1 °F 6.1 °F 48% 29.86 in 10.0 mi WNW 12.7 mph 25.3 mph N/A   Scattered Clouds
8:53 AM 23.0 °F 9.2 °F 6.1 °F 48% 29.85 in 10.0 mi WNW 17.3 mph 24.2 mph N/A   Partly Cloudy
9:53 AM 25.0 °F 12.2 °F 5.0 °F 43% 29.85 in 10.0 mi WNW 16.1 mph 24.2 mph N/A   Partly Cloudy
10:53 AM 26.1 °F 12.7 °F 7.0 °F 44% 29.87 in 10.0 mi NW 18.4 mph 26.5 mph 0.00 in   Partly Cloudy
11:53 AM 26.1 °F 12.0 °F 8.1 °F 47% 29.87 in 10.0 mi NW 20.7 mph 28.8 mph N/A   Partly Cloudy
12:53 PM 27.0 °F 13.9 °F 9.0 °F 47% 29.88 in 10.0 mi WNW 18.4 mph 24.2 mph N/A   Scattered Clouds
1:53 PM 30.0 °F 16.9 °F 10.9 °F 45% 29.88 in 10.0 mi NNW 21.9 mph 28.8 mph N/A   Mostly Cloudy
2:53 PM 28.9 °F 15.8 °F 10.0 °F 45% 29.90 in 10.0 mi NW 20.7 mph 34.5 mph N/A   Mostly Cloudy
3:53 PM 28.9 °F 16.5 °F 10.0 °F 45% 29.94 in 10.0 mi NW 18.4 mph 27.6 mph N/A   Mostly Cloudy
4:53 PM 28.0 °F 14.6 °F 10.9 °F 49% 29.99 in 10.0 mi NNW 20.7 mph 33.4 mph N/A   Mostly Cloudy
5:53 PM 25.0 °F 12.2 °F 10.0 °F 53% 30.03 in 10.0 mi NNW 16.1 mph 29.9 mph N/A   Partly Cloudy
6:53 PM 24.1 °F 12.0 °F 10.9 °F 57% 30.08 in 10.0 mi NNW 13.8 mph 21.9 mph N/A   Clear
7:53 PM 24.1 °F 11.0 °F 10.9 °F 57% 30.12 in 10.0 mi NNW 16.1 mph 24.2 mph N/A   Scattered Clouds
8:53 PM 25.0 °F 13.6 °F 12.0 °F 58% 30.15 in 10.0 mi NNW 12.7 mph 20.7 mph N/A   Mostly Cloudy
9:53 PM 24.1 °F 12.5 °F 12.9 °F 62% 30.17 in 10.0 mi North 12.7 mph - N/A   Partly Cloudy
10:53 PM 24.1 °F 13.7 °F 12.9 °F 62% 30.20 in 10.0 mi NNW 10.4 mph - N/A   Clear
11:53 PM 24.1 °F 14.4 °F 14.0 °F 65% 30.25 in 10.0 mi NNW 9.2 mph - N/A   Clear